Location: Unspecified
(0.0000°N, 0.0000°E)
Time: 05:33:18
(UTC+00:00)

Vanguard 1 Rocket - All Passes

Search period start: 25 October 2014 00:00
Search period end: 04 November 2014 00:00
Orbit: 654 x 4226 km, 34.3° (Epoch: 21 October)

Date Brightness Start Highest point End Pass type
(mag) Time Alt. Az. Time Alt. Az. Time Alt. Az.
25 Oct - 01:47:09 10° WNW 01:57:52 16° NNW 02:06:05 10° N visible
25 Oct - 06:59:05 10° NNW 07:02:34 15° NNE 07:05:26 10° ENE daylight
25 Oct - 09:23:39 10° WNW 09:28:03 50° SW 09:32:36 10° SE daylight
25 Oct - 16:48:57 10° SSW 17:00:54 24° SSE 17:17:49 10° E daylight
25 Oct - 19:13:38 10° SW 19:34:06 64° SE 19:59:51 10° ENE visible
25 Oct - 21:43:20 10° WSW 22:08:07 63° NW 22:30:36 10° NE visible
26 Oct - 00:24:05 10° W 00:42:43 25° NNW 00:56:26 10° NNE visible
26 Oct - 08:12:37 10° NW 08:17:49 58° NE 08:22:07 10° ESE daylight
26 Oct - 10:41:31 10° SW 10:43:07 12° SSW 10:44:49 10° S daylight
26 Oct - 15:40:29 10° S 15:46:29 13° SSE 15:54:00 10° SE daylight
26 Oct - 18:02:34 10° SSW 18:19:26 45° SE 18:43:26 10° ENE visible
26 Oct - 20:29:35 10° SW 20:52:45 83° NW 21:17:58 10° NE visible
26 Oct - 23:04:26 10° W 23:27:22 38° NW 23:45:42 10° NNE visible
27 Oct - 01:54:54 10° NW 02:03:18 14° NNW 02:10:00 10° N visible
27 Oct - 07:01:47 10° NNW 07:07:07 26° NNE 07:11:03 10° E daylight
27 Oct - 09:28:23 10° W 09:32:14 26° SW 09:36:08 10° SSE daylight
27 Oct - 16:52:25 10° SSW 17:05:17 29° SE 17:24:20 10° E daylight
27 Oct - 19:17:18 10° SW 19:37:38 75° SE 20:03:58 10° ENE visible
27 Oct - 21:47:53 10° WSW 22:11:51 53° NW 22:34:06 10° NE visible
28 Oct - 00:31:06 10° WNW 00:47:40 21° NNW 01:00:11 10° NNE visible
28 Oct - 05:50:55 10° NNW 05:55:35 16° NNE 05:59:09 10° ENE daylight
28 Oct - 08:16:34 10° WNW 08:21:58 75° SW 08:26:20 10° SE daylight
28 Oct - 15:43:33 10° S 15:51:25 17° SSE 16:02:04 10° ESE daylight
28 Oct - 18:06:07 10° SW 18:23:08 54° SE 18:48:13 10° ENE visible
28 Oct - 20:33:40 10° WSW 20:56:20 71° NW 21:21:33 10° NE visible
28 Oct - 23:10:17 10° W 23:31:47 32° NNW 23:49:16 10° NNE visible
29 Oct - 02:01:57 10° NW 02:08:59 13° NNW 02:14:45 10° N visible
29 Oct - 04:39:31 10° N 04:43:08 12° N 04:46:08 10° NNE visible
29 Oct - 07:05:05 10° NW 07:11:32 44° NNE 07:15:57 10° ESE daylight
29 Oct - 09:33:53 10° WSW 09:36:27 15° SSW 09:39:01 10° S daylight
29 Oct - 16:55:53 10° SSW 17:09:18 36° SE 17:30:11 10° E daylight
29 Oct - 19:21:06 10° SW 19:41:09 87° SE 20:07:49 10° NE visible
29 Oct - 21:52:50 10° W 22:15:51 45° NW 22:37:34 10° NE visible
30 Oct - 00:38:27 10° WNW 00:53:02 18° NNW 01:04:15 10° NNE visible
30 Oct - 03:25:54 10° NNW 03:29:36 11° N 03:32:47 10° NNE visible
30 Oct - 05:53:30 10° NNW 06:00:20 25° NNE 06:04:54 10° E daylight
30 Oct - 08:20:56 10° WNW 08:26:02 40° SW 08:30:10 10° SSE daylight
30 Oct - 15:46:43 10° S 15:55:56 21° SE 16:09:24 10° E daylight
30 Oct - 18:09:46 10° SW 18:26:40 65° SE 18:52:34 10° ENE visible
30 Oct - 20:38:01 10° WSW 21:00:04 60° NW 21:25:01 10° NE visible
30 Oct - 23:16:42 10° WNW 23:36:37 27° NNW 23:53:00 10° NNE visible
31 Oct - 02:07:34 10° NNW 02:14:47 13° N 02:20:36 10° NNE visible
31 Oct - 04:41:25 10° NNW 04:48:13 18° NNE 04:53:01 10° ENE visible
31 Oct - 07:08:45 10° NW 07:15:47 78° NE 07:20:23 10° ESE daylight
31 Oct - 16:59:23 10° SSW 17:13:04 44° SE 17:35:25 10° ENE daylight
31 Oct - 19:25:06 10° WSW 19:44:44 80° NW 20:11:26 10° NE visible
31 Oct - 21:58:13 10° W 22:20:11 37° NNW 22:41:05 10° NNE visible
01 Nov - 00:45:38 10° NW 00:58:44 17° NNW 01:08:54 10° NNE visible
01 Nov - 03:28:00 10° NNW 03:35:02 15° N 03:40:18 10° NE visible
01 Nov - 05:56:36 10° NW 06:04:55 39° NNE 06:09:57 10° E daylight
01 Nov - 08:25:50 10° W 08:30:03 23° SW 08:33:36 10° SSE daylight
01 Nov - 15:49:58 10° SSW 16:00:06 27° SE 16:15:57 10° E daylight
01 Nov - 18:13:32 10° SW 18:30:12 77° SE 18:56:33 10° ENE visible
01 Nov - 20:42:42 10° WSW 21:04:03 51° NW 21:28:26 10° NE visible
01 Nov - 23:23:32 10° WNW 23:41:53 23° NNW 23:57:01 10° NNE visible
02 Nov - 02:11:52 10° NNW 02:20:34 15° N 02:27:12 10° NNE visible
02 Nov - 04:44:03 10° NNW 04:53:07 26° NNE 04:58:47 10° ENE visible
02 Nov - 07:12:47 10° WNW 07:19:52 62° SW 07:24:29 10° SE daylight
02 Nov - 14:42:32 10° S 14:47:22 13° SE 14:53:27 10° ESE daylight
02 Nov - 17:02:58 10° SW 17:16:39 54° SE 17:40:06 10° ENE daylight
02 Nov - 19:29:19 10° WSW 19:48:29 68° NW 20:14:53 10° NE visible
02 Nov - 22:04:06 10° W 22:24:56 31° NNW 22:44:43 10° NNE visible
03 Nov - 00:52:08 10° NW 01:04:38 16° N 01:14:17 10° NNE visible
03 Nov - 03:30:36 10° NNW 03:40:17 20° NNE 03:46:44 10° ENE visible
03 Nov - 06:00:00 10° NW 06:09:18 62° NNE 06:14:34 10° ESE daylight
03 Nov - 08:31:42 10° WSW 08:34:05 13° SW 08:36:14 10° S daylight
03 Nov - 15:53:20 10° SSW 16:03:58 34° SE 16:21:45 10° E daylight
03 Nov - 18:17:27 10° SW 18:33:47 89° NW 19:00:15 10° NE visible
03 Nov - 20:47:45 10° W 21:08:21 42° NNW 21:31:50 10° NE visible
03 Nov - 23:30:34 10° WNW 23:47:34 21° NNW 00:00:00 12° NNE visible
